Regional Weather Roundup
Issued by NWS Portland, ME

Home | Current Version | Previous Version | Text Only | Print | Product List | Glossary On
Versions: 1 2 3 4 5 6 7 8 9 10 11 12 13 14 15 16 17 18 19 20 21 22 23 24 25 26 27 28 29 30 31 32 33 34 35 36 37 38 39 40 41 42 43 44 45 46 47 48 49 50
973
ASUS41 KGYX 190710
RWRGYX
WEATHER ROUNDUP FOR MAINE AND NEW HAMPSHIRE
NATIONAL WEATHER SERVICE GRAY ME
200 AM EST THU JAN 19 2017

MEZ002-005-006-010-012-015-018-020-021-024-026-027-029-190800-
MAINE

CITY           SKY/WX    TMP DP  RH WIND       PRES   REMARKS
PORTLAND       CLOUDY    26  21  81 NW6       30.03R
SANFORD        FLURRIES  26  24  92 N5        30.02R
BAR HARBOR     FLURRIES  27  21  78 N3        30.02F
WISCASSET      CLOUDY    27  21  78 CALM      30.02F
ROCKLAND       CLOUDY    30  26  85 NE5       30.00F
FRYEBURG       LGT SNOW  25  23  92 SE3       29.99F FOG
LEWISTONAUBURN LGT SNOW  24  22  91 N5        30.02R VSB 1
AUGUSTA        LGT SNOW  22  18  85 N8        30.02R VSB 1
WATERVILLE     LGT SNOW  22  20  92 N5        29.99R VSB 3/4
BANGOR         LGT SNOW  24  20  84 N7        30.02S FOG
GREENVILLE       N/A     18  18 100 VRB3      29.90F
MILLINOCKET    LGT SNOW  20  17  88 CALM      30.01F VSB 1
HOULTON        LGT SNOW  19  15  84 S5        29.99F FOG
PRESQUE ISLE   LGT SNOW  17  14  88 S9        29.97F FOG
FRENCHVILLE    LGT SNOW  16  12  84 SE12      29.90F FOG     WCI   3
CARIBOU        LGT SNOW  18  14  84 S10       29.95F FOG     WCI   6
$$

NHZ002-005-008-009-011-012-014-190800-
NEW HAMPSHIRE

CITY           SKY/WX    TMP DP  RH WIND       PRES   REMARKS
PORTSMOUTH     CLOUDY    28  25  89 NW5       30.01R
ROCHESTER      CLOUDY    27  24  89 NW5       30.00R
NASHUA         CLOUDY    30  30 100 NW3       30.02R
MANCHESTER     CLOUDY    30  26  85 NW3       30.00S
CONCORD        CLOUDY    29  26  89 CALM      30.01R
LACONIA        LGT SNOW  27  25  92 CALM      30.00S FOG
PLYMOUTH       LGT SNOW  28  27  97 CALM      29.99S
BERLIN         LGT SNOW  26  22  84 NW3       29.93R FOG
WHITEFIELD     LGT SNOW  28  25  88 CALM      29.93R FOG
JAFFREY        LGT SNOW  29  26  89 CALM      29.97S FOG
KEENE          CLOUDY    30  29  96 CALM      30.00S
LEBANON        CLOUDY    31  29  92 CALM      29.96F
MT WASHINGTON  DRFTSNOW  18  18 100 W36         N/A  VSB 1/16WCI  -3
$$

VTZ005-007-008-190800-
VERMONT

CITY           SKY/WX    TMP DP  RH WIND       PRES   REMARKS
ST JOHNSBURY     N/A     30  28  92 MISG      29.94R
MONTPELIER     CLOUDY    30  28  92 CALM      29.95S
BURLINGTON     CLOUDY    36  33  89 SW7       29.95R
$$

MAZ007-012-024-CTZ003-RIZ002-NYZ038-NYZ072-190800-
SOUTHERN NEW ENGLAND AND NY

CITY           SKY/WX    TMP DP  RH WIND       PRES   REMARKS
BOSTON         CLOUDY    32  30  92 NW7       30.02S
WORCESTER      FOG       30  28  92 NW3       29.98R VSB 3/4
NANTUCKET      CLOUDY    41  38  89 N6        29.97R
PROVIDENCE     CLOUDY    35  33  92 N5        30.01S
HARTFORD       CLOUDY    34  33  96 CALM      30.02R
ALBANY         CLOUDY    35  33  92 S3        30.01S FOG
NEW YORK CITY  CLOUDY    42  36  79 CALM      30.03R
$$

ANZ081-ANZ082-ANZ150-NHZ014-MEZ023>029-190800-
COASTAL MARINE OBSERVATIONS

STATION/POSITION TIME  TEMP    WIND        PRES    WAVE
                       AIR SEA DIR/SP/G            HT/PER
                 (UTC) (F)     (DEG/KT/KT) (MB)    (FT/S)
MOUNT DESERT ROC 0700   35                 1016.3F
MATINICUS ROCK   0600   36     110/ 11/ 12 1015.5F
ISLE OF SHOALS   0600   30      10/ 13/ 15 1016.1F
CASHES LEDGE BUO 0650   39 46  110/  8/ 12 1015.4F   6/ 7
GEORGES BANK BUO 0650   44 44              1010.9R  10/10
$$

.............KEY..............
   WCI - WIND CHILL
   TC  - TEMPERATURE IN CELSIUS
   VSB - VISIBILITY IN MILES
   HX  - HEAT INDEX
   FAIR- INDICATES FEW OR NO CLOUDS BELOW 12,000 FT, WITH NO
         SIGNIFICANT WEATHER AND/OR OBSTRUCTIONS TO VISIBILITY.






USA.gov is the U.S. government's official web portal to all federal, state and local government web resources and services.